Content
SEND FEEDBACK

Daily
Averages
Monthly
Summary
United States of America

AGAT, GUAM


Home > North America > United States > Guam
Elevation: 110 meters     Latitude: 13 33N     Longitude: 144 50E

WEATHER
 
SELECT A DAY
Number of Records: 209,165;   Date Range: 1/1/95 - 8/30/14
 
SHARE

PRINT THIS DATA

[ ← Previous Day ]
WEATHER ALMANAC - 18 FEBRUARY, 2013
[ Next Day → ]
[ °F ]   °C
Weather ElementAverageHighLow
Temperature26.3 °C29.5 °C (11:54 am)23.3 °C (6:54 am)
Dewpoint22.9 °C24 °C (7:26 pm)21.7 °C (3:54 am)
Humidity81.7 %94 % (7:26 pm)68 % (11:54 am)
Barometer1010.5 hPa1012.2 hPa (11:01 pm)1008.5 hPa (2:54 pm)
Wind Speed27.7 km/h38.9 km/h (12:54 pm)
Wind Gust50.1 km/h (11:54 am)
Weather ElementAverage
Visibility15.8 km
Wind DirectionENE (75.2 °)

Weather ElementTotal
Precipitation1.27 mm
Cooling Degree Days8.1 (Base 18.3)
Growing Degree Days16.4 (Base 10)
Averaged from 27 records on 18 February, 2013
WEATHER CONDITIONS BREAKOUT
WIND DIRECTION BREAKOUT
WEATHER BY HOUR - 18 FEBRUARY, 2013
[ °F ]   °C
Local TimeTemperatureDewpointHumidityBarometerVisibilityWind DirectionWind SpeedGust SpeedPrecipitationEventsConditions
1:54 AM24.5 °C22.8 °C90 %1010.2 hPa16.1 kmENE (60°)22.2 km/h0 mmMostly Cloudy
2:54 AM25.2 °C23 °C88 %1010.2 hPa12.9 kmNE (50°)29.6 km/h46.3 km/h0 mmRainLight Rain
3:54 AM25.2 °C21.7 °C81 %1010.2 hPa16.1 kmENE (70°)27.8 km/h0.25 mmOvercast
4:54 AM23.9 °C21.7 °C87 %1010.2 hPa16.1 kmENE (70°)27.8 km/hScattered Clouds
5:54 AM23.9 °C21.7 °C87 %1010.2 hPa16.1 kmENE (60°)29.6 km/h0 mmScattered Clouds
6:54 AM23.3 °C22.2 °C93 %1010.8 hPa16.1 kmENE (70°)22.2 km/h0 mmScattered Clouds
7:54 AM25.8 °C22.2 °C80 %1011.2 hPa16.1 kmEast (80°)27.8 km/h0 mmPartly Cloudy
8:54 AM26.6 °C21.9 °C75 %1011.5 hPa16.1 kmENE (70°)33.3 km/h44.4 km/hPartly Cloudy
9:54 AM28.1 °C22.1 °C70 %1011.2 hPa16.1 kmENE (60°)35.2 km/h48.1 km/hPartly Cloudy
10:54 AM28.7 °C22.4 °C69 %1010.8 hPa16.1 kmENE (70°)35.2 km/h48.1 km/hPartly Cloudy
11:54 AM29.5 °C23 °C68 %1010.2 hPa16.1 kmEast (80°)31.5 km/h50.1 km/hMostly Cloudy
12:54 PM28.8 °C22.8 °C70 %1009.8 hPa16.1 kmEast (80°)38.9 km/h50.1 km/hScattered Clouds
1:54 PM28.9 °C23.2 °C71 %1009.5 hPa16.1 kmEast (80°)33.3 km/h48.1 km/hScattered Clouds
2:54 PM28.6 °C23.1 °C72 %1008.5 hPa16.1 kmENE (70°)29.6 km/h42.6 km/h0 mmMostly Cloudy
3:54 PM28.7 °C22.8 °C70 %1008.5 hPa16.1 kmEast (80°)29.6 km/h44.4 km/hScattered Clouds
4:54 PM28.6 °C23.1 °C72 %1009.1 hPa16.1 kmEast (80°)22.2 km/h38.9 km/hMostly Cloudy
5:54 PM27.8 °C22.2 °C71 %1009.5 hPa16.1 kmEast (80°)27.8 km/h46.3 km/hPartly Cloudy
6:54 PM25.3 °C23.9 °C92 %1010.2 hPa9.7 kmEast (80°)20.4 km/h40.7 km/h1.02 mmRainLight Rain
7:26 PM25 °C24 °C94 %1010.8 hPa16.1 kmEast (80°)22.2 km/h38.9 km/h0 mmMostly Cloudy
7:50 PM26 °C24 °C89 %1011.2 hPa16.1 kmEast (80°)33.3 km/h42.6 km/h0 mmScattered Clouds
7:54 PM25.8 °C23.9 °C89 %1010.5 hPa16.1 kmEast (80°)27.8 km/h42.6 km/h0 mmScattered Clouds
8:54 PM25.7 °C23.3 °C87 %1011.2 hPa16.1 kmEast (90°)27.8 km/h40.7 km/hPartly Cloudy
9:54 PM26.1 °C23.4 °C85 %1011.2 hPa16.1 kmEast (80°)22.2 km/h40.7 km/hScattered Clouds
10:54 PM26.3 °C23.5 °C84 %1011.5 hPa16.1 kmEast (80°)24.1 km/hMostly Cloudy
11:01 PM24 °C23 °C94 %1012.2 hPa16.1 kmEast (80°)22.2 km/hMostly Cloudy
11:23 PM24 °C23 °C94 %1012.2 hPa16.1 kmEast (90°)20.4 km/h35.2 km/hScattered Clouds
11:54 PM26.3 °C23.6 °C85 %1011.2 hPa16.1 kmEast (80°)22.2 km/h35.2 km/hPartly Cloudy
Hourly data recorded from PGUM, located 0 kilometers away from Agat, Guam







STORIES FROM OUR PARTNERS